Location: Slemon Park
(46.4340°N, 63.8219°W)
Time: 21:14:37
(UTC-04:00)

Daily predictions for brighter satellites

Satellite Brightness Start Highest point End
(mag) Time Altitude Azimuth Time Altitude Azimuth Time Altitude Azimuth
Meteor 2-12 Rocket 4.5 18:02:25 10° N 18:08:35 80° E 18:14:40 10° SSE
Abrixas rocket 2.9 18:07:06 10° WNW 18:10:12 50° SSW 18:13:18 10° SE
USA 267 3.9 18:04:18 10° E 18:10:20 41° NNE 18:16:23 10° NW
Lacrosse 4 Rocket 2.4 18:08:16 10° NW 18:12:21 54° WSW 18:16:31 10° SSE
Cosmos 724 4.4 18:08:37 10° SSW 18:14:22 63° ESE 18:20:06 10° NE
Meteor 1-27 Rocket 3.9 18:09:44 10° N 18:15:33 64° ENE 18:21:24 10° SSE
CZ-4C R/B 4.3 18:15:37 10° NW 18:19:54 18° N 18:24:34 10° NE
MOS 1 4.3 18:16:50 10° SSE 18:22:28 75° ENE 18:28:09 10° NNW
Cosmos 1782 3.9 18:18:43 10° NNW 18:22:37 50° W 18:26:28 10° S
Cosmos 1725 Rocket 4.0 18:18:02 10° N 18:24:24 83° E 18:30:42 10° S
CZ-2C R/B 3.7 18:22:04 10° NNE 18:26:35 85° WNW 18:31:01 10° SSW
Cosmos 1980 3.8 18:22:31 10° NNW 18:28:07 55° ENE 18:33:41 10° SE
Cosmos 1624 Rocket 4.0 18:23:51 10° NNW 18:29:04 60° ENE 18:34:11 10° SE
COSMO-SKYMED 1 2.5 18:24:50 10° NNE 18:29:13 81° ESE 18:33:33 10° SSW
EO 1 Del DPAF 3.7 18:26:59 10° NNE 18:30:37 40° E 18:34:14 10° S
Cosmos 1680 Rocket 3.6 18:26:55 10° SSW 18:32:14 87° WNW 18:37:36 10° NNE
ERS-2 2.7 18:29:05 10° SE 18:32:28 36° ENE 18:35:53 10° N
CZ-4 R/B 3.3 18:29:34 10° SSW 18:33:22 36° W 18:37:06 10° NNW
MTI 3.7 18:30:28 10° NNE 18:33:38 64° ESE 18:36:48 10° S
MOS 1-B Rocket 4.1 18:29:56 10° SSE 18:36:33 87° WSW 18:42:23 10° NNW
NOSS 3-2 (A) 3.8 18:31:46 10° S 18:37:20 44° ESE 18:43:28 10° NE
Cosmos 2123 Rocket 4.1 18:33:20 10° S 18:39:32 86° W 18:45:45 10° N
ATLAS 3B R/B 2.8 18:34:23 10° SSW 18:41:37 77° SE 18:48:35 10° NE
Iridium 4 Rocket 4.3 18:38:55 10° NNE 18:43:14 26° ENE 18:47:14 10° SE
Cosmos 1862 3.4 18:39:33 10° SSW 18:43:31 79° W 18:47:31 10° N
Thor Agena Rocket 4.5 18:41:01 10° NE 18:45:12 25° E 18:49:19 10° SSE
SJ-6B 3.5 18:42:58 10° SE 18:46:17 30° ENE 18:49:39 10° N
Iridium 2 4.3 18:43:45 10° NNW 18:47:33 61° W 18:51:19 10° S
USA 238 DEB 3.7 18:44:12 10° SW 18:51:07 88° SE 18:58:09 10° NE
USA 238 3.7 18:44:18 10° SW 18:51:13 88° SE 18:58:15 10° NE
Landsat 4 3.7 18:49:07 10° NNE 18:52:52 87° WNW 18:56:36 10° SSW
Cosmos 1633 4.1 18:55:51 10° SE 18:57:18 18° ESE 18:57:18 18° ESE
Cosmos 1674 Rocket 3.6 18:55:55 10° N 19:00:13 51° ENE 19:04:26 10° SSE
Cosmos 44 Rocket 4.1 18:55:46 10° NNW 19:00:18 33° NE 19:02:47 22° E
Cosmos 2219 Rocket 3.3 18:58:40 10° NW 19:04:06 48° WSW 19:09:30 10° S
Cosmos 1908 Rocket 4.3 19:03:55 10° SSE 19:07:50 31° E 19:11:46 10° NNE
Envisat 3.2 19:04:20 10° SE 19:09:10 46° ENE 19:14:01 10° N
Shenzhou-11 Module 4.0 19:07:05 10° WSW 19:09:31 22° SSW 19:11:05 15° SSE
Cosmos 2219 3.7 19:04:06 10° SW 19:09:39 61° WNW 19:15:15 10° NNE
Resurs 01 Rocket 2.5 19:09:01 26° E 19:09:55 28° ENE 19:13:43 10° N
Tiangong 2 2.0 19:08:55 10° WSW 19:11:56 40° S 19:12:57 30° SE
Meteor 1-18 Rocket 4.4 19:06:33 10° N 19:12:01 49° ENE 19:17:24 10° SSE
Lacrosse 5 2.2 19:08:06 10° NW 19:13:08 66° SW 19:17:40 13° SE
Cosmos 2237 Rocket 2.3 19:08:04 10° NNW 19:13:43 77° WSW 19:19:19 10° SSE
SL-16 R/B 2.4 19:08:57 10° NNW 19:14:29 50° ENE 19:18:08 21° SE
Cosmos 2227 Rocket 2.1 19:09:55 10° SSW 19:15:30 66° ESE 19:21:07 10° NNE
USA 215 3.2 19:13:02 17° ENE 19:18:16 68° SE 19:24:46 10° SW
Cosmos 1733 Rocket 2.9 19:14:08 10° S 19:18:27 90° SE 19:22:48 10° N
Meteor 1-20 Rocket 4.4 19:14:27 10° SSE 19:19:50 46° E 19:25:20 10° NNE
FREGAT/IRIS 3.2 19:17:31 10° S 19:20:26 56° W 19:23:22 10° NNW
USA 186 3.6 19:23:29 20° NNE 19:23:29 20° NNE 19:24:49 10° N
H-2A R/B 4.0 19:20:28 10° S 19:24:13 44° W 19:28:00 10° NNW
NOSS 3-2 (C) 3.4 19:21:49 10° SSW 19:27:44 70° SE 19:33:03 16° NE
HJ-1C 3.6 19:25:03 10° S 19:28:27 73° WSW 19:31:54 10° NNW
SeaSat 1 2.7 19:25:12 10° SSE 19:30:07 71° WSW 19:35:04 10° NNW
Cosmos 2297 Rocket 2.1 19:24:33 10° SSW 19:30:10 74° ESE 19:35:51 10° NNE
Cosmos 921 Rocket 3.8 19:27:11 10° N 19:31:05 35° NE 19:31:05 35° NE
DNEPR-1 R/B 3.3 19:27:36 10° SSW 19:31:46 72° ESE 19:33:20 38° NE
Cosmos 1975 Rocket 4.0 19:28:12 10° N 19:31:13 31° NE 19:31:13 31° NE
CZ-2D R/B 3.1 19:28:25 10° SSE 19:32:19 85° ENE 19:36:15 10° NNW
ARGOS Delta rocket 3.8 19:30:15 10° NNE 19:35:15 59° E 19:39:56 10° S
Cosmos 1939 Rocket 3.5 19:36:09 39° NE 19:36:09 39° NE 19:39:22 10° N
Cosmos 1464 Rocket 3.8 19:30:32 10° N 19:36:42 81° E 19:42:49 10° S
Meteor 1-25 Rocket 4.1 19:31:28 10° S 19:36:57 68° E 19:42:29 10° NNE
Cosmos 2333 Rocket 4.2 19:36:39 10° NW 19:41:25 29° WSW 19:46:10 10° SSW
Okean 3 3.6 19:37:53 10° NNW 19:42:03 70° W 19:46:12 10° S
Cosmos 1812 3.5 19:39:34 10° NNW 19:43:22 53° W 19:47:09 10° S
Sich 1 Rocket 4.2 19:43:04 10° S 19:51:33 12° NNE 19:51:58 10° NNE
Cosmos 1452 Rocket 3.6 19:42:33 10° NNW 19:47:51 78° WSW 19:51:49 18° SSE
Cosmos 44 3.3 19:44:26 10° NW 19:49:26 88° NE 19:50:58 47° SE
USA 267 3.2 19:50:11 39° ESE 19:52:55 81° NE 19:59:30 10° NW
Meteor 2-4 Rocket 4.5 19:48:27 10° N 19:52:57 36° NE 19:52:57 36° NE
Cosmos 2082 3.7 19:49:09 10° SSW 19:54:46 82° WNW 19:59:54 13° NNE
Spot 2 Rocket 3.3 19:59:09 66° ESE 19:59:36 70° ENE 20:04:40 10° N
Geosat 3.8 19:59:18 42° NE 20:01:01 83° ESE 20:06:04 10° SSW
Cosmos 2084 Rocket 3.9 19:56:53 10° SW 20:01:10 57° NW 20:01:50 50° N
Cosmos 1378 Rocket 4.0 19:57:00 10° NNW 20:01:20 61° W 20:04:22 19° S
BREEZE-M DEB (TANK) 3.7 20:01:57 10° WNW 20:03:07 26° W 20:03:07 26° W
CENTAUR R/B 2.5 20:01:36 10° SSW 20:07:31 58° ESE 20:07:41 58° ESE
Cosmos 2034 Rocket 4.1 20:02:51 10° N 20:09:14 79° W 20:15:36 10° S
CZ-4C R/B 3.6 20:04:33 10° NNW 20:10:37 33° NNE 20:11:16 32° NE
Cosmos 1420 Rocket 4.5 20:07:16 10° NNW 20:12:27 60° WSW 20:14:47 32° S
Thor Agena Rocket 4.4 20:19:49 10° N 20:24:43 46° WNW 20:29:32 10° SW
Cosmos 1634 Rocket 4.4 20:20:28 10° N 20:25:02 47° NNE 20:25:02 47° NNE
Cosmos 158 Rocket 4.2 20:22:45 10° SSW 20:27:13 61° W 20:27:13 61° W
NOSS 3-2 (A) 4.4 20:22:22 10° WSW 20:28:11 45° NW 20:32:17 22° NNE
Meteor 1-13 Rocket 4.4 20:24:14 10° N 20:28:44 59° N 20:28:44 59° N
Cosmos 1816 Rocket 4.4 20:26:16 10° S 20:32:38 89° W 20:39:03 10° N
ATLAS 3B R/B 4.1 20:26:35 10° W 20:32:58 34° NNW 20:37:45 16° NNE
Cosmos 44 Rocket 4.3 20:37:11 10° NW 20:41:32 44° WSW 20:41:32 44° WSW
Cosmos 1943 4.5 20:38:59 10° NNW 20:42:05 31° N 20:42:05 31° N
Resurs 01 Rocket 3.3 20:46:34 32° W 20:46:34 32° W 20:50:18 10° NNW
H-2A R/B 4.1 20:55:59 19° N 20:55:59 19° N 20:57:29 10° N
SL-16 R/B 3.9 20:53:35 10° NW 20:58:19 28° WSW 21:00:05 24° SW
Cosmos 2227 Rocket 4.2 20:55:28 10° WSW 21:00:03 25° NW 21:04:32 11° N
USA 215 3.8 21:00:22 49° N 21:01:10 51° NNW 21:07:26 10° W
Cosmos 2297 Rocket 4.3 21:10:25 10° W 21:14:50 23° NW 21:18:18 14° N
CENTAUR R/B 4.4 21:52:34 10° WSW 21:54:59 23° W 21:54:59 23° W
CZ-4C R/B 4.1 21:52:51 10° NW 21:56:28 35° NW 21:56:28 35° NW
